Orbital Elements at Epoch 2459200.5 (2020-Dec-17.0) TDB
Reference: JPL 17 (heliocentric ecliptic J2000)
Element | Value | Uncertainty (1-sigma) | Units |
e | .2238498747179621 | 2.6617e-08 | |
a | 2.370104382010483 | 8.701e-09 | au |
q | 1.839556813028943 | 6.5183e-08 | au |
i | 3.247881482931375 | 4.3924e-06 | deg |
node | 62.79604343922514 | 8.4677e-05 | deg |
peri | 220.1761074157321 | 8.5786e-05 | deg |
M | 12.1582762436178 | 1.3662e-05 | deg |
tp | 2459155.488950159969 (2020-Nov-01.98895016) | 5.0563e-05 | TDB |
period | 1332.75290162263 3.65 | 7.3391e-06 2.009e-08 | d yr |
n | .2701175886105363 | 1.4875e-09 | deg/d |
Q | 2.900651950992023 | 1.0649e-08 | au |
|
| | Orbit Determination Parameters
Additional Information
|